Terminal Aerodrome Forecast
Issued by NWS

Current Version | Previous Version | Graphics & Text | Print | Product List | Glossary On
Versions: 1 2 3 4 5 6 7 8 9 10 11 12 13 14 15 16 17 18 19 20 21 22 23 24 25 26 27 28 29 30 31 32
000
FTUS41 KILN 301933 AAB
TAFLCK
TAF AMD
KLCK 301933Z 3020/0118 04009KT P6SM -SHRA VCTS SCT012CB BKN025
     FM302200 12007KT P6SM VCSH BKN035
      TEMPO 3022/0101 4SM BR BKN015
     FM010100 14004KT P6SM BKN040
     FM010600 VRB03KT 5SM BR BKN025
      TEMPO 0111/0113 4SM BR BKN015
     FM011500 12006KT 5SM BR VCSH OVC012=

USA.gov is the U.S. government's official web portal to all federal, state and local government web resources and services.